Luverne, MN

11:41 PM CST on December 12, 2017 (GMT -0600)
Luverne

Weather History for KLYV - March, 2014

Change the Weather History Date:

Monday, March 17, 2014

  Actual Average (KPQN) Record (KPQN)
Temperature  
Mean Temperature 42 °F -  
Max Temperature 53 °F 36 °F 73 °F (2012)
Min Temperature 30 °F 21 °F 8 °F (2013)
Degree Days  
Heating Degree Days 24    
Moisture  
Dew Point 26 °F    
Average Humidity 60    
Maximum Humidity 70    
Minimum Humidity 44    
Precipitation  
Precipitation 0.00 in - - ()
Sea Level Pressure  
Sea Level Pressure 29.55 in    
Wind  
Wind Speed 15 mph (South)    
Max Wind Speed 21 mph    
Max Gust Speed 26 mph    
Visibility 10 miles    
Events      
Averages and records for this station are not official NWS values.
T = Trace of Precipitation, MM = Missing Value Source: NWS Daily Summary

Daily Weather History Graph

Daily Weather History Graph

Search for Another Location

Airport or City:

Trip Planner

Search our weather history database for the weather conditions in past years. The results will help you decide how hot, cold, wet, or windy it might be!

Date:

Astronomy

Mar. 17, 2014 Rise Set
Actual Time 7:33 AM CDT 7:33 PM CDT
Civil Twilight 7:04 AM CDT 8:02 PM CDT
Nautical Twilight 6:31 AM CDT 8:35 PM CDT
Astronomical Twilight 5:57 AM CDT 9:09 PM CDT
Moon 8:55 PM CDT (3/17) 7:47 AM CDT (3/17)
Length of Visible Light 12h 57m
Length of Day
12h 00m
Full, 99% of the Moon is Illuminated
Mar 17
Full
Mar 23
Last Quarter
Mar 30
New
Apr 7
First Quarter
Apr 15
Full

Hourly Weather History & Observations

Time (CDT) Temp. Windchill Dew Point Humidity Pressure Visibility Wind Dir Wind Speed Gust Speed Precip Events Conditions
12:14 AM 32.0 °F 19.8 °F 17.6 °F 55% 29.91 in 10.0 mi South 20.7 mph 26.5 mph N/A   Overcast
12:35 AM 32.0 °F 22.1 °F 19.4 °F 60% 29.90 in 10.0 mi South 13.8 mph 26.5 mph N/A   Overcast
12:55 AM 32.0 °F 22.5 °F 17.6 °F 55% 29.89 in 10.0 mi South 12.7 mph - N/A   Mostly Cloudy
1:14 AM 32.0 °F 21.2 °F 17.6 °F 55% 29.88 in 10.0 mi South 16.1 mph 23.0 mph N/A   Scattered Clouds
1:35 AM 32.0 °F 21.6 °F 19.4 °F 60% 29.85 in 10.0 mi South 15.0 mph 20.7 mph N/A   Scattered Clouds
1:55 AM 30.2 °F 18.9 °F 19.4 °F 64% 29.84 in 10.0 mi South 16.1 mph 23.0 mph N/A   Scattered Clouds
2:14 AM 30.2 °F 19.3 °F 19.4 °F 64% 29.84 in 10.0 mi South 15.0 mph - N/A   Mostly Cloudy
2:35 AM 30.2 °F 19.8 °F 19.4 °F 64% 29.82 in 10.0 mi South 13.8 mph 20.7 mph N/A   Mostly Cloudy
2:54 AM 30.2 °F 18.5 °F 19.4 °F 64% 29.81 in 10.0 mi South 17.3 mph 23.0 mph N/A   Scattered Clouds
3:15 AM 30.2 °F 18.9 °F 19.4 °F 64% 29.79 in 10.0 mi South 16.1 mph - N/A   Clear
3:34 AM 30.2 °F 18.9 °F 21.2 °F 69% 29.78 in 10.0 mi South 16.1 mph 20.7 mph N/A   Scattered Clouds
3:55 AM 30.2 °F 18.9 °F 21.2 °F 69% 29.75 in 10.0 mi South 16.1 mph - N/A   Clear
4:15 AM 30.2 °F 19.8 °F 21.2 °F 69% 29.75 in 10.0 mi South 13.8 mph - N/A   Clear
4:34 AM 30.2 °F 19.3 °F 21.2 °F 69% 29.73 in 10.0 mi South 15.0 mph - N/A   Scattered Clouds
4:55 AM 30.2 °F 19.3 °F 21.2 °F 69% 29.71 in 10.0 mi South 15.0 mph - N/A   Mostly Cloudy
5:15 AM 30.2 °F 19.8 °F 21.2 °F 69% 29.71 in 10.0 mi South 13.8 mph - N/A   Overcast
5:34 AM 30.2 °F 19.3 °F 21.2 °F 69% 29.69 in 10.0 mi South 15.0 mph - N/A   Scattered Clouds
5:55 AM 32.0 °F 21.6 °F 21.2 °F 64% 29.68 in 10.0 mi South 15.0 mph - N/A   Mostly Cloudy
6:15 AM 32.0 °F 20.8 °F 21.2 °F 64% 29.67 in 10.0 mi South 17.3 mph - N/A   Overcast
6:34 AM 32.0 °F 20.8 °F 21.2 °F 64% 29.68 in 10.0 mi SSW 17.3 mph 26.5 mph N/A   Overcast
6:55 AM 32.0 °F 21.6 °F 21.2 °F 64% 29.65 in 10.0 mi South 15.0 mph 23.0 mph N/A   Overcast
7:14 AM 32.0 °F 20.5 °F 21.2 °F 64% 29.63 in 10.0 mi South 18.4 mph 25.3 mph N/A   Scattered Clouds
7:35 AM 32.0 °F 20.8 °F 21.2 °F 64% 29.62 in 10.0 mi South 17.3 mph - N/A   Clear
7:55 AM 32.0 °F 21.2 °F 21.2 °F 64% 29.63 in 10.0 mi South 16.1 mph 20.7 mph N/A   Clear
8:14 AM 32.0 °F 20.8 °F 21.2 °F 64% 29.62 in 10.0 mi SSW 17.3 mph 23.0 mph N/A   Clear
8:35 AM 32.0 °F 20.8 °F 21.2 °F 64% 29.61 in 10.0 mi SSW 17.3 mph - N/A   Clear
8:54 AM 32.0 °F 20.8 °F 21.2 °F 64% 29.59 in 10.0 mi South 17.3 mph 23.0 mph N/A   Clear
9:14 AM 32.0 °F 20.1 °F 21.2 °F 64% 29.58 in 10.0 mi SSW 19.6 mph 23.0 mph N/A   Clear
9:35 AM 33.8 °F 22.5 °F 21.2 °F 60% 29.56 in 10.0 mi SSW 19.6 mph 24.2 mph N/A   Clear
9:54 AM 33.8 °F 22.8 °F 21.2 °F 60% 29.56 in 10.0 mi SSW 18.4 mph 23.0 mph N/A   Clear
10:15 AM 35.6 °F 24.8 °F 23.0 °F 60% 29.54 in 10.0 mi SSW 19.6 mph - N/A   Clear
10:35 AM 35.6 °F 26.2 °F 23.0 °F 60% 29.54 in 10.0 mi SSW 15.0 mph 20.7 mph N/A   Clear
10:54 AM 35.6 °F 25.9 °F 23.0 °F 60% 29.54 in 10.0 mi South 16.1 mph - N/A   Clear
11:15 AM 37.4 °F 28.5 °F 24.8 °F 60% 29.53 in 10.0 mi SSW 15.0 mph - N/A   Clear
11:35 AM 37.4 °F 27.8 °F 26.6 °F 65% 29.53 in 10.0 mi SSW 17.3 mph - N/A   Clear
11:54 AM 39.2 °F 30.8 °F 26.6 °F 61% 29.53 in 10.0 mi SSW 15.0 mph - N/A   Clear
12:15 PM 41.0 °F 32.5 °F 26.6 °F 57% 29.52 in 10.0 mi SSW 17.3 mph - N/A   Clear
12:34 PM 41.0 °F 33.5 °F 26.6 °F 57% 29.51 in 10.0 mi SSW 13.8 mph - N/A   Clear
12:55 PM 42.8 °F 35.4 °F 26.6 °F 53% 29.50 in 10.0 mi SSW 15.0 mph - N/A   Clear
1:14 PM 42.8 °F 36.2 °F 26.6 °F 53% 29.49 in 10.0 mi South 12.7 mph - N/A   Clear
1:35 PM 42.8 °F 36.2 °F 28.4 °F 57% 29.48 in 10.0 mi South 12.7 mph - N/A   Clear
1:55 PM 44.6 °F 38.1 °F 28.4 °F 53% 29.47 in 10.0 mi South 13.8 mph 17.3 mph N/A   Clear
2:15 PM 46.4 °F 40.4 °F 30.2 °F 53% 29.46 in 10.0 mi South 13.8 mph 17.3 mph N/A   Clear
2:34 PM 46.4 °F 41.1 °F 28.4 °F 50% 29.44 in 10.0 mi South 11.5 mph - N/A   Clear
2:55 PM 48.2 °F - 30.2 °F 50% 29.44 in 10.0 mi South 13.8 mph - N/A   Clear
3:14 PM 50.0 °F - 30.2 °F 47% 29.42 in 10.0 mi South 11.5 mph 18.4 mph N/A   Clear
3:34 PM 50.0 °F - 32.0 °F 50% 29.42 in 10.0 mi SSE 9.2 mph - N/A   Clear
3:55 PM 50.0 °F - 32.0 °F 50% 29.42 in 10.0 mi South 11.5 mph 18.4 mph N/A   Clear
4:14 PM 51.8 °F - 32.0 °F 47% 29.41 in 10.0 mi South 12.7 mph - N/A   Clear
4:34 PM 51.8 °F - 32.0 °F 47% 29.41 in 10.0 mi South 11.5 mph - N/A   Clear
4:55 PM 51.8 °F - 32.0 °F 47% 29.40 in 10.0 mi SSE 10.4 mph 16.1 mph N/A   Clear
5:14 PM 53.6 °F - 32.0 °F 44% 29.39 in 10.0 mi SSE 15.0 mph 18.4 mph N/A   Clear
5:34 PM 50.0 °F - 30.2 °F 47% 29.39 in 10.0 mi South 10.4 mph - N/A   Clear
5:55 PM 50.0 °F - 32.0 °F 50% 29.39 in 10.0 mi SSE 10.4 mph 16.1 mph N/A   Clear
6:14 PM 50.0 °F - 32.0 °F 50% 29.39 in 10.0 mi SSE 10.4 mph - N/A   Clear
6:35 PM 50.0 °F - 32.0 °F 50% 29.39 in 10.0 mi SSE 8.1 mph - N/A   Clear
6:54 PM 46.4 °F 41.9 °F 32.0 °F 57% 29.38 in 10.0 mi SE 9.2 mph - N/A   Clear
7:15 PM 44.6 °F 40.2 °F 32.0 °F 61% 29.37 in 10.0 mi SE 8.1 mph - N/A   Clear
7:35 PM 44.6 °F 39.2 °F 32.0 °F 61% 29.38 in 10.0 mi SE 10.4 mph - N/A   Clear
7:54 PM 42.8 °F 37.5 °F 32.0 °F 66% 29.38 in 10.0 mi SE 9.2 mph - N/A   Clear
8:15 PM 42.8 °F 38.0 °F 32.0 °F 66% 29.37 in 10.0 mi SE 8.1 mph - N/A   Clear
8:34 PM 42.8 °F 38.6 °F 32.0 °F 66% 29.38 in 10.0 mi ESE 6.9 mph - N/A   Clear
8:55 PM 41.0 °F 36.4 °F 32.0 °F 70% 29.39 in 10.0 mi SE 6.9 mph - N/A   Clear
9:15 PM 41.0 °F 36.4 °F 32.0 °F 70% 29.38 in 10.0 mi ESE 6.9 mph - N/A   Clear
9:34 PM 41.0 °F 37.1 °F 32.0 °F 70% 29.38 in 10.0 mi SE 5.8 mph - N/A   Clear
9:55 PM 41.0 °F 35.2 °F 32.0 °F 70% 29.39 in 10.0 mi SE 9.2 mph - N/A   Scattered Clouds
10:15 PM 42.8 °F 37.5 °F 32.0 °F 66% 29.39 in 10.0 mi SE 9.2 mph - N/A   Mostly Cloudy
10:34 PM 42.8 °F 37.5 °F 32.0 °F 66% 29.39 in 10.0 mi SE 9.2 mph - N/A   Mostly Cloudy
10:55 PM 42.8 °F 37.0 °F 32.0 °F 66% 29.39 in 10.0 mi ESE 10.4 mph - N/A   Overcast
11:15 PM 41.0 °F 33.5 °F 32.0 °F 70% 29.38 in 10.0 mi SE 13.8 mph - N/A   Mostly Cloudy
11:34 PM 41.0 °F 34.3 °F 32.0 °F 70% 29.38 in 10.0 mi SE 11.5 mph - N/A   Scattered Clouds
11:55 PM 41.0 °F 34.7 °F 30.2 °F 65% 29.38 in 10.0 mi SE 10.4 mph - N/A   Scattered Clouds